Tracking 29747 objects as of 9-Oct-2024
HD Live streaming from Space Station
objects crossing your sky now

STARLINK-1115

Track STARLINK-1115 now!
10-day predictions
STARLINK-1115 is classified as:


NORAD ID: 44973
Int'l Code: 2020-001BM
Perigee: 508.5 km
Apogee: 514.8 km
Inclination: 53.1 °
Period: 94.7 minutes
Semi major axis: 6882 km
RCS: Unknown
Launch date: January 7, 2020
Source: United States (US)
Launch site: AIR FORCE EASTERN TEST RANGE (AFETR)
Your satellite tracking list
Your tracking list is empty




NASA's NSSDC Master Catalog

Two Line Element Set (TLE):
1 44973U 20001BM  24283.20706479  .00109201  00000-0  48845-2 0  9998
2 44973  53.0523  97.9438 0004603 204.6948 155.3828 15.20431409262666
Source of the keplerian elements: AFSPC